Simultaneous Nadir Overpasses (SNOs) Predictions

Prediction of SNOs between NOAA-19 and TERRA Satellite Orbit:

Table of predicted SNOs for the next 14.0 days since TLE Epoch: 4/1/2023
Index Date (NOAA-19) Time (NOAA-19) Lat,Lon (NOAA-19) SZA (NOAA-19 ) Date (TERRA) Time (TERRA) Lat,Lon (TERRA) SZA (TERRA ) Distance(km) Time Diff (sec)
1 04/02/2023 17:41:35 -80.93, 128.95 102.61 04/02/2023 17:42:36 -80.92, 128.92 102.60 0.85 61
2 04/02/2023 18:32:34 80.93, -63.38 77.42 04/02/2023 18:31:58 80.92, -63.50 77.38 2.54 36
3 04/04/2023 21:32:11 80.93,-108.45 76.61 04/04/2023 21:33:06 80.93,-108.63 76.61 3.09 55
4 04/04/2023 22:23:10 -80.93, 59.08 103.38 04/04/2023 22:22:29 -80.93, 59.04 103.40 0.83 41
5 04/07/2023 01:22:48 -80.93, 13.78 104.21 04/07/2023 01:23:37 -80.93, 13.68 104.20 1.64 49
6 04/07/2023 02:13:46 80.93,-178.64 75.81 04/07/2023 02:12:59 80.92,-178.73 75.78 1.92 47
7 04/09/2023 05:13:23 80.93, 136.12 75.00 04/09/2023 05:14:06 80.93, 136.04 75.01 1.26 43
8 04/09/2023 06:04:23 -80.93, -56.27 104.98 04/09/2023 06:03:29 -80.93, -56.30 105.01 0.61 54
9 04/11/2023 09:04:01 -80.93,-101.76 105.81 04/11/2023 09:04:36 -80.92,-101.75 105.80 1.11 35
10 04/11/2023 09:54:57 80.93, 66.12 74.24 04/11/2023 09:53:57 80.94, 66.18 74.23 1.25 60
11 04/13/2023 12:54:34 80.93, 20.71 73.43 04/13/2023 12:55:03 80.94, 20.86 73.47 2.91 29



Historial Predications of SNOs between NOAA-19 and TERRA
